GW5372 Weather Reports


time (UTC)temp
C
wind
direction
speed
KPH
gust
KPH
rain 1hr
cm
rain 24hr
cm
rain mn
cm
humidity
%
barometer
mb
20260510180230 22 108 0.0 0.0 0.00 0.00 0.00 60 1012.4
20260510175726 23 85 1.6 1.6 0.00 0.00 0.00 58 1012.4
20260510175222 22 351 1.6 1.6 0.00 0.00 0.00 60 1012.2
20260510174719 22 123 1.6 1.6 0.00 0.00 0.00 60 1012.3
20260510174217 22 102 0.0 1.6 0.00 0.00 0.00 61 1012.2
20260510173712 22 110 0.0 1.6 0.00 0.00 0.00 60 1012.2
20260510173208 22 116 1.6 1.6 0.00 0.00 0.00 60 1012.2
20260510172703 22 108 0.0 0.0 0.00 0.00 0.00 61 1012.3
20260510172200 22 109 0.0 0.0 0.00 0.00 0.00 61 1012.2
20260510171657 21 97 1.6 1.6 0.00 0.00 0.00 65 1012.3
20260510171154 21 113 0.0 1.6 0.00 0.00 0.00 65 1012.4
20260510170651 21 105 0.0 1.6 0.00 0.00 0.00 68 1012.4
20260510170147 20 149 1.6 1.6 0.00 0.00 0.00 66 1012.4
20260510165643 20 106 0.0 0.0 0.00 0.00 0.00 70 1012.5
20260510165139 20 114 0.0 0.0 0.00 0.00 0.00 70 1012.5
20260510164637 20 113 0.0 1.6 0.00 0.00 0.00 71 1012.7
20260510164134 20 94 0.0 0.0 0.00 0.00 0.00 72 1012.8
20260510163629 19 102 0.0 0.0 0.00 0.00 0.00 73 1012.7
20260510163125 19 141 0.0 1.6 0.00 0.00 0.00 72 1012.7
20260510162620 18 97 1.6 1.6 0.00 0.00 0.00 73 1012.7
20260510162117 18 107 0.0 0.0 0.00 0.00 0.00 75 1012.7
20260510161612 18 146 0.0 1.6 0.00 0.00 0.00 75 1012.6
20260510161110 18 107 0.0 0.0 0.00 0.00 0.00 74 1012.8
20260510160606 18 51 1.6 1.6 0.00 0.00 0.00 72 1012.7
20260510160106 18 31 0.0 1.6 0.00 0.00 0.00 74 1012.6
20260510155603 18 98 0.0 0.0 0.00 0.00 0.00 75 1012.7
20260510155059 18 103 0.0 0.0 0.00 0.00 0.00 76 1012.7
20260510154555 17 104 0.0 0.0 0.00 0.00 0.00 77 1012.5
20260510154050 17 139 1.6 1.6 0.00 0.00 0.00 77 1012.9
20260510153545 17 105 0.0 0.0 0.00 0.00 0.00 76 1012.9
20260510153043 17 103 0.0 0.0 0.00 0.00 0.00 78 1012.8
20260510152539 17 121 0.0 1.6 0.00 0.00 0.00 77 1012.8
20260510152036 16 99 0.0 0.0 0.00 0.00 0.00 81 1012.9
20260510151532 16 101 0.0 0.0 0.00 0.00 0.00 80 1012.6
20260510151030 16 100 0.0 0.0 0.00 0.00 0.00 81 1012.6
20260510150525 16 103 0.0 0.0 0.00 0.00 0.00 81 1012.9
20260510150021 16 122 0.0 0.0 0.00 0.00 0.00 82 1012.9
20260510145518 16 94 0.0 0.0 0.00 0.00 0.00 82 1012.9
20260510145014 16 118 0.0 0.0 0.00 0.00 0.00 81 1013.1
20260510144511 15 122 1.6 1.6 0.00 0.00 0.00 83 1012.9
20260510144007 16 116 0.0 1.6 0.00 0.00 0.00 83 1012.8
20260510143502 15 106 0.0 0.0 0.00 0.00 0.00 83 1012.7
20260510142959 15 118 0.0 0.0 0.00 0.00 0.00 84 1012.8
20260510142456 15 110 0.0 0.0 0.00 0.00 0.00 85 1012.7
20260510141953 15 106 0.0 0.0 0.00 0.00 0.00 86 1012.9
20260510141449 15 55 1.6 3.2 0.00 0.00 0.00 86 1012.8
20260510140946 14 101 0.0 0.0 0.00 0.00 0.00 87 1012.8
20260510140443 14 345 1.6 1.6 0.00 0.00 0.00 88 1012.6
20260510135942 13 119 0.0 0.0 0.00 0.00 0.00 90 1012.6
20260510135438 13 116 0.0 0.0 0.00 0.00 0.00 91 1012.6
20260510134935 13 116 0.0 0.0 0.00 0.00 0.00 91 1012.7
20260510134432 13 113 0.0 0.0 0.00 0.00 0.00 93 1012.7
20260510133928 12 97 0.0 0.0 0.00 0.00 0.00 96 1012.6
20260510133424 12 98 0.0 0.0 0.00 0.00 0.00 97 1012.6
20260510132920 12 97 0.0 0.0 0.00 0.00 0.00 97 1012.8
20260510132418 12 97 0.0 0.0 0.00 0.00 0.00 98 1012.5
20260510131915 12 176 0.0 1.6 0.00 0.00 0.00 98 1012.5
20260510131412 12 93 0.0 0.0 0.00 0.00 0.00 99 1012.5
20260510130909 12 112 0.0 0.0 0.00 0.00 0.00 99 1012.4
20260510130406 12 112 0.0 0.0 0.00 0.00 0.00 99 1012.1
20260510125903 12 112 0.0 0.0 0.00 0.00 0.00 99 1012.3
20260510125358 12 120 0.0 0.0 0.00 0.00 0.00 99 1012.0
20260510124855 11 96 0.0 0.0 0.00 0.00 0.00 99 1012.0
20260510124352 11 83 0.0 0.0 0.00 0.00 0.00 99 1012.0
20260510123848 11 80 0.0 0.0 0.00 0.00 0.00 99 1011.8
20260510123344 11 131 0.0 0.0 0.00 0.00 0.00 99 1012.0
20260510122840 11 117 0.0 0.0 0.00 0.00 0.00 99 1011.9
20260510122336 11 124 0.0 0.0 0.00 0.00 0.00 99 1012.0
20260510121833 11 108 0.0 0.0 0.00 0.00 0.00 99 1011.9
20260510121330 11 108 0.0 0.0 0.00 0.00 0.00 99 1011.7
20260510120827 11 108 0.0 0.0 0.00 0.00 0.00 99 1012.0
20260510120324 11 116 0.0 0.0 0.00 0.00 0.00 99 1011.7
20260510115820 11 97 0.0 0.0 0.00 0.00 0.00 99 1011.7
20260510115318 11 97 0.0 0.0 0.00 0.00 0.00 99 1011.5
20260510114813 11 97 0.0 0.0 0.00 0.00 0.00 99 1011.4
20260510114310 11 97 0.0 0.0 0.00 0.00 0.00 99 1011.5
20260510113805 11 97 0.0 0.0 0.00 0.00 0.00 99 1011.6
20260510113303 11 95 0.0 0.0 0.00 0.00 0.00 99 1011.5
20260510112759 11 95 0.0 0.0 0.00 0.00 0.00 99 1011.9
20260510112256 11 95 0.0 0.0 0.00 0.00 0.00 99 1011.6
20260510111752 11 83 0.0 0.0 0.00 0.00 0.00 99 1011.3
20260510111249 11 98 0.0 0.0 0.00 0.00 0.00 99 1011.4
20260510110748 10 109 0.0 0.0 0.00 0.00 0.00 99 1011.2
20260510110247 11 112 0.0 0.0 0.00 0.00 0.00 99 1011.3
20260510105746 11 112 0.0 0.0 0.00 0.00 0.00 99 1011.3
20260510105241 10 79 0.0 0.0 0.00 0.00 0.00 99 1011.2
20260510104738 10 88 0.0 0.0 0.00 0.00 0.00 99 1010.9
20260510104236 10 88 0.0 0.0 0.00 0.00 0.00 99 1010.8
20260510103731 10 88 0.0 0.0 0.00 0.00 0.00 99 1010.9
20260510103229 10 88 0.0 0.0 0.00 0.00 0.00 99 1010.9
20260510102728 10 88 0.0 0.0 0.00 0.00 0.00 99 1010.8
20260510102224 10 88 0.0 0.0 0.00 0.00 0.00 99 1010.8
20260510101722 10 88 0.0 0.0 0.00 0.00 0.00 99 1010.8
20260510101221 10 88 0.0 0.0 0.00 0.00 0.00 99 1010.9
20260510100716 10 88 0.0 0.0 0.00 0.00 0.00 99 1011.0
20260510100214 10 87 0.0 0.0 0.00 0.00 0.00 99 1011.0
20260510095709 10 87 0.0 0.0 0.00 0.00 0.00 99 1010.9
20260510095205 10 87 0.0 0.0 0.00 0.00 0.00 99 1011.0
20260510094703 10 88 0.0 0.0 0.00 0.00 0.00 99 1011.0
20260510094200 10 88 0.0 0.0 0.00 0.00 0.00 99 1010.9
20260510093655 10 88 0.0 0.0 0.00 0.00 0.00 99 1010.6
20260510093153 10 88 0.0 0.0 0.00 0.00 0.00 99 1010.8
20260510092649 10 89 0.0 0.0 0.00 0.00 0.00 99 1010.9
20260510092145 10 84 0.0 0.0 0.00 0.00 0.00 99 1011.0
20260510091641 10 84 0.0 0.0 0.00 0.00 0.00 99 1011.0
20260510091137 10 84 0.0 0.0 0.00 0.00 0.00 99 1011.2
20260510090634 10 84 0.0 0.0 0.00 0.00 0.00 99 1011.2
20260510090130 10 84 0.0 0.0 0.00 0.00 0.00 99 1011.2
20260510085620 10 84 0.0 0.0 0.00 0.00 0.00 99 1011.3
20260510085115 10 84 0.0 0.0 0.00 0.00 0.00 99 1011.3
20260510084612 10 77 0.0 0.0 0.00 0.00 0.00 99 1011.5
20260510084108 10 117 0.0 0.0 0.00 0.00 0.00 99 1011.4
20260510083605 10 124 0.0 0.0 0.00 0.00 0.00 99 1011.4
20260510083101 10 92 0.0 0.0 0.00 0.00 0.00 99 1011.3
20260510082558 10 220 0.0 0.0 0.00 0.00 0.00 99 1011.4
20260510082053 10 113 0.0 0.0 0.00 0.00 0.00 99 1011.3
20260510081548 10 114 0.0 0.0 0.00 0.00 0.00 99 1011.1
20260510081044 10 263 1.6 3.2 0.00 0.00 0.00 99 1011.0
20260510080544 10 32 0.0 1.6 0.00 0.00 0.00 99 1011.3
20260510080041 10 93 0.0 1.6 0.00 0.00 0.00 99 1011.0
20260510075538 10 4 1.6 1.6 0.00 0.00 0.00 99 1011.2
20260510075035 11 59 0.0 0.0 0.00 0.00 0.00 99 1010.5
20260510074533 11 86 0.0 0.0 0.00 0.00 0.00 99 1010.4
20260510074028 11 83 0.0 0.0 0.00 0.00 0.00 99 1010.5
20260510073524 11 86 0.0 0.0 0.00 0.00 0.00 99 1010.5
20260510073021 11 89 0.0 0.0 0.00 0.00 0.00 99 1010.1
20260510072518 11 89 0.0 0.0 0.00 0.00 0.00 99 1010.4
20260510072013 11 89 0.0 0.0 0.00 0.00 0.00 99 1010.5
20260510071509 11 89 0.0 0.0 0.00 0.00 0.00 99 1010.5
20260510071008 11 89 0.0 0.0 0.00 0.00 0.00 99 1010.6
20260510070505 11 89 0.0 0.0 0.00 0.00 0.00 99 1010.5
20260510070000 11 105 0.0 0.0 0.00 0.00 0.00 99 1010.7
20260510065458 11 111 0.0 0.0 0.00 0.00 0.00 99 1010.7
20260510064954 11 114 0.0 0.0 0.00 0.00 0.00 99 1010.5
20260510064451 11 90 0.0 0.0 0.00 0.00 0.00 99 1010.8
20260510063947 11 119 0.0 0.0 0.00 0.00 0.00 99 1010.6
20260510063444 11 80 0.0 0.0 0.00 0.00 0.00 99 1010.7
20260510062943 11 84 0.0 0.0 0.00 0.00 0.00 99 1010.7
20260510062442 11 88 0.0 0.0 0.00 0.00 0.00 99 1010.5
20260510061938 11 90 0.0 0.0 0.00 0.00 0.00 99 1010.4
20260510061435 11 83 0.0 0.0 0.00 0.00 0.00 99 1010.7
20260510060931 11 82 0.0 0.0 0.00 0.00 0.00 99 1010.5
20260510060428 11 86 0.0 0.0 0.00 0.00 0.00 99 1010.5
20260510055924 11 102 0.0 0.0 0.00 0.00 0.00 99 1010.4
20260510055420 11 102 0.0 0.0 0.00 0.00 0.00 99 1010.2
20260510054918 11 102 0.0 0.0 0.00 0.00 0.00 99 1010.4
20260510054414 11 102 0.0 0.0 0.00 0.00 0.00 99 1010.4
20260510053909 11 102 0.0 0.0 0.00 0.00 0.00 99 1010.3
20260510053405 11 102 0.0 0.0 0.00 0.00 0.00 99 1010.3
20260510052901 11 102 0.0 0.0 0.00 0.00 0.00 99 1010.4
20260510052357 11 102 0.0 0.0 0.00 0.00 0.00 99 1010.3
20260510051853 11 102 0.0 0.0 0.00 0.00 0.00 99 1010.4
20260510051350 11 102 0.0 0.0 0.00 0.00 0.00 99 1010.6
20260510050846 11 102 0.0 0.0 0.00 0.00 0.00 99 1010.5
20260510050343 11 102 0.0 0.0 0.00 0.00 0.00 99 1010.6
20260510045840 11 102 0.0 0.0 0.00 0.00 0.00 99 1010.6
20260510045337 11 102 0.0 0.0 0.00 0.00 0.00 99 1010.5
20260510044834 11 102 0.0 0.0 0.00 0.00 0.00 99 1010.7
20260510044331 11 102 0.0 0.0 0.00 0.00 0.00 99 1010.6
20260510043828 11 102 0.0 0.0 0.00 0.00 0.00 99 1010.6
20260510043323 11 103 0.0 0.0 0.00 0.00 0.00 99 1010.7
20260510042821 11 104 0.0 0.0 0.00 0.00 0.00 99 1010.6
20260510042317 11 104 0.0 0.0 0.00 0.00 0.00 99 1010.7
20260510041814 11 104 0.0 0.0 0.00 0.00 0.00 99 1010.7
20260510041311 11 104 0.0 0.0 0.00 0.00 0.00 99 1010.5
20260510040808 11 104 0.0 0.0 0.00 0.00 0.00 99 1010.5
20260510040305 11 100 0.0 0.0 0.00 0.00 0.00 99 1010.6
20260510035800 11 100 0.0 0.0 0.00 0.71 0.71 99 1010.7
20260510035256 11 100 0.0 0.0 0.00 0.71 0.71 98 1010.6
20260510034752 11 100 0.0 0.0 0.00 0.71 0.71 98 1010.4
20260510034250 11 100 0.0 0.0 0.00 0.71 0.71 98 1010.3
20260510033747 11 101 0.0 0.0 0.00 0.71 0.71 98 1010.4
20260510033244 11 98 0.0 0.0 0.00 0.71 0.71 98 1010.2
20260510032740 10 98 0.0 0.0 0.00 0.71 0.71 98 1010.4
20260510032236 10 98 0.0 0.0 0.00 0.71 0.71 98 1010.4
20260510031731 10 98 0.0 0.0 0.00 0.71 0.71 98 1010.2
20260510031227 10 98 0.0 0.0 0.00 0.71 0.71 98 1010.2
20260510030727 10 98 0.0 0.0 0.00 0.71 0.71 98 1010.2
20260510030225 10 87 0.0 0.0 0.00 0.71 0.71 98 1010.2
20260510025722 10 100 0.0 0.0 0.00 0.71 0.71 98 1010.1
20260510025219 10 100 0.0 0.0 0.00 0.71 0.71 98 1010.6
20260510024716 10 100 0.0 0.0 0.00 0.71 0.71 98 1010.4
20260510024212 10 100 0.0 0.0 0.00 0.71 0.71 98 1010.3
20260510023708 10 101 0.0 0.0 0.00 0.71 0.71 98 1010.5
20260510023205 10 107 0.0 0.0 0.00 0.71 0.71 98 1010.3
20260510022701 10 107 0.0 0.0 0.00 0.71 0.71 98 1010.4
20260510022156 10 107 0.0 0.0 0.00 0.71 0.71 98 1010.5
20260510021651 10 107 0.0 0.0 0.00 0.71 0.71 98 1010.4
20260510021149 10 107 0.0 0.0 0.00 0.71 0.71 98 1010.4
20260510020643 10 107 0.0 0.0 0.00 0.71 0.71 98 1010.5
20260510020139 10 107 0.0 0.0 0.00 0.71 0.71 98 1010.4
20260510015635 10 108 0.0 0.0 0.00 0.71 0.71 98 1010.2
20260510015132 11 108 0.0 0.0 0.00 0.71 0.71 98 1010.5
20260510014627 11 108 0.0 0.0 0.00 0.71 0.71 98 1010.4
20260510014125 11 108 0.0 0.0 0.00 0.71 0.71 98 1010.3
20260510013625 11 108 0.0 0.0 0.00 0.71 0.71 98 1010.2
20260510013121 11 108 0.0 0.0 0.00 0.71 0.71 98 1010.4
20260510012620 11 108 0.0 0.0 0.00 0.71 0.71 98 1010.2
20260510012117 11 103 0.0 0.0 0.00 0.71 0.71 98 1010.3
20260510011616 11 103 0.0 0.0 0.00 0.71 0.71 98 1010.2
20260510011112 10 103 0.0 0.0 0.00 0.71 0.71 98 1010.2
20260510010609 10 103 0.0 0.0 0.00 0.71 0.71 98 1010.1
20260510010106 10 103 0.0 0.0 0.00 0.71 0.71 97 1009.8
20260510005601 11 103 0.0 0.0 0.00 0.71 0.71 97 1010.0
20260510005059 11 103 0.0 0.0 0.00 0.71 0.71 97 1009.9
20260510004557 11 103 0.0 0.0 0.00 0.71 0.71 97 1009.9
20260510004055 11 103 0.0 0.0 0.00 0.71 0.71 97 1009.7
20260510003551 11 103 0.0 0.0 0.00 0.71 0.71 97 1009.6
20260510003047 11 103 0.0 0.0 0.00 0.71 0.71 97 1009.8
20260510002542 11 103 0.0 0.0 0.00 0.71 0.71 97 1009.8
20260510002039 11 103 0.0 0.0 0.00 0.71 0.71 97 1009.9
20260510001537 11 103 0.0 0.0 0.00 0.71 0.71 97 1009.9
20260510001035 11 103 0.0 0.0 0.00 0.71 0.71 97 1010.0
20260510000530 11 103 0.0 0.0 0.00 0.71 0.71 97 1009.7
20260510000027 11 103 0.0 0.0 0.00 0.71 0.71 97 1010.0
20260509235524 11 102 0.0 0.0 0.00 0.71 0.71 97 1009.8
20260509235021 11 97 0.0 0.0 0.00 0.71 0.71 97 1009.6
20260509234517 11 93 0.0 0.0 0.00 0.71 0.71 97 1009.6
20260509234015 11 93 0.0 0.0 0.00 0.71 0.71 97 1009.7
20260509233512 12 93 0.0 0.0 0.00 0.71 0.71 97 1009.5
20260509233009 12 93 0.0 0.0 0.00 0.71 0.71 97 1009.4
20260509232506 12 92 0.0 0.0 0.00 0.71 0.71 97 1009.5
20260509232002 12 92 0.0 0.0 0.00 0.71 0.71 97 1009.5
20260509231459 12 92 0.0 0.0 0.00 0.71 0.71 97 1009.5
20260509230956 12 89 0.0 0.0 0.00 0.71 0.71 97 1009.4
20260509230453 12 86 0.0 0.0 0.00 0.71 0.71 97 1009.4
20260509225949 12 88 0.0 0.0 0.00 0.71 0.71 97 1009.5
20260509225446 12 100 0.0 0.0 0.00 0.71 0.71 96 1009.8
20260509224941 12 100 0.0 0.0 0.00 0.71 0.71 96 1009.8
20260509224437 12 100 0.0 0.0 0.00 0.71 0.71 96 1010.0
20260509223934 12 100 0.0 0.0 0.00 0.71 0.71 96 1010.1
20260509223431 12 100 0.0 0.0 0.00 0.71 0.71 96 1009.9
20260509222928 13 96 0.0 0.0 0.00 0.71 0.71 97 1009.9
20260509222423 12 96 0.0 0.0 0.00 0.71 0.71 97 1009.7
20260509221919 12 96 0.0 0.0 0.00 0.71 0.71 97 1009.8
20260509221416 12 96 0.0 0.0 0.00 0.71 0.71 96 1009.8
20260509220912 12 96 0.0 0.0 0.00 0.71 0.71 97 1009.8
20260509220408 12 96 0.0 0.0 0.00 0.71 0.71 97 1009.8
20260509215904 12 96 0.0 0.0 0.00 0.71 0.71 96 1010.1
20260509215400 12 96 0.0 0.0 0.30 0.71 0.71 96 1010.1
20260509214857 12 96 0.0 0.0 0.43 0.71 0.71 96 1010.0
20260509214355 12 89 0.0 0.0 0.66 0.69 0.69 96 1010.0
20260509213852 12 88 0.0 0.0 0.66 0.64 0.64 96 1010.1
20260509213347 12 88 0.0 0.0 0.61 0.58 0.58 96 1010.3
20260509212845 12 72 0.0 0.0 0.43 0.53 0.53 96 1010.1
20260509212342 12 100 0.0 0.0 0.30 0.48 0.48 96 1010.2
20260509211838 12 99 0.0 0.0 0.30 0.46 0.46 95 1010.2
20260509211334 12 100 0.0 0.0 0.13 0.43 0.43 95 1010.2
20260509210831 12 98 0.0 0.0 0.30 0.43 0.43 95 1010.2
20260509210328 12 98 0.0 0.0 0.79 0.41 0.41 95 1010.1
20260509205828 12 95 0.0 1.6 0.79 0.38 0.38 94 1009.8
20260509205323 12 92 0.0 0.0 0.30 0.28 0.28 94 1010.2
20260509204820 12 92 0.0 0.0 0.13 0.25 0.25 94 1010.1
20260509204316 12 92 0.0 0.0 0.00 0.23 0.23 94 1010.1
20260509203812 12 85 0.0 0.0 0.00 0.23 0.23 94 1010.4
20260509203309 12 85 0.0 0.0 0.00 0.23 0.23 93 1010.1
20260509202805 12 75 0.0 1.6 0.18 0.23 0.23 93 1010.1
20260509202305 12 87 0.0 0.0 0.30 0.23 0.23 93 1010.2
20260509201801 12 87 0.0 0.0 0.13 0.20 0.20 92 1010.3
20260509201258 12 98 0.0 0.0 0.30 0.20 0.20 92 1010.6
20260509200754 12 98 0.0 0.0 0.30 0.18 0.18 91 1010.6
20260509200249 13 88 0.0 0.0 0.30 0.15 0.15 91 1010.4
20260509195747 13 84 0.0 0.0 0.18 0.13 0.13 90 1010.6
20260509195242 13 87 0.0 0.0 0.13 0.10 0.10 89 1010.6
20260509194742 13 110 0.0 0.0 0.13 0.10 0.10 87 1010.7
20260509194238 13 117 0.0 0.0 0.00 0.08 0.08 86 1010.7
20260509193735 13 89 0.0 0.0 0.00 0.08 0.08 85 1010.6
20260509193235 13 99 0.0 0.0 0.00 0.08 0.08 84 1010.5
20260509192731 14 121 0.0 1.6 0.00 0.08 0.08 85 1010.4
20260509192226 13 127 1.6 1.6 0.00 0.08 0.08 84 1010.5
20260509191722 13 98 0.0 0.0 0.00 0.08 0.08 84 1010.5
20260509191219 13 96 0.0 0.0 0.00 0.08 0.08 86 1010.4
20260509190715 13 84 0.0 0.0 0.00 0.08 0.08 86 1010.4
20260509190212 13 16 1.6 1.6 0.00 0.08 0.08 86 1010.4
20260509185710 13 63 0.0 0.0 0.00 0.08 0.08 86 1010.5
20260509185205 13 101 0.0 0.0 0.00 0.08 0.08 85 1010.4
20260509184703 13 9 4.8 4.8 0.18 0.08 0.08 84 1010.5
20260509184200 13 129 0.0 0.0 0.18 0.08 0.08 85 1010.1
20260509183656 13 44 0.0 0.0 0.00 0.05 0.05 85 1010.7
20260509183152 13 76 0.0 0.0 0.13 0.05 0.05 85 1010.8
20260509182647 14 105 0.0 0.0 0.13 0.05 0.05 84 1010.9
20260509182145 14 87 0.0 0.0 0.00 0.03 0.03 83 1010.9
20260509181643 14 281 1.6 1.6 0.00 0.03 0.03 84 1010.9
20260509181140 14 93 0.0 0.0 0.18 0.03 0.03 83 1010.8
20260509180637 15 80 0.0 0.0 0.18 0.03 0.03 80 1011.1